Location: Unspecified
(35.7250°N, 0.0000°E)
Time: 01:29:03
(UTC+00:00)

Vanguard 1 - Pass Details

Date: 04 July 2019
Orbit: 653 x 3830 km, 34.3° (Epoch: 14 October)

Event Time Altitude Azimuth Distance (km) Brightness Sun altitude
Rises 00:17:09 0° 251° (WSW) 7,731 14.4 -31.3°
Reaches altitude 10° 00:22:11 10° 250° (WSW) 6,853 14.1 -31.2°
Maximum altitude 00:46:05 81° 168° (SSE) 3,504 12.5 -30.5°
Drops below altitude 10° 01:03:03 10° 84° (E) 5,142 13.9 -29.7°
Sets 01:06:12 0° 84° (E) 5,815 14.3 -29.6°
